owner,sensor,date,latitude,longitude,vertical_datum,sea_water_temperature,qcFlag
BHP,ioos:station:wmo:42383:2,2020-10-01T00:05:00Z,27.3704,-89.9241,27.9,27.8,11111222
BHP,ioos:station:wmo:42383:2,2020-10-01T00:25:00Z,27.3704,-89.9241,27.9,28.1,11111222
BHP,ioos:station:wmo:42383:2,2020-10-01T00:45:00Z,27.3704,-89.9241,27.9,28.0,11111222
BHP,ioos:station:wmo:42383:2,2020-10-01T01:05:00Z,27.3704,-89.9241,27.9,28.0,11111222
BHP,ioos:station:wmo:42383:2,2020-10-01T01:25:00Z,27.3704,-89.9241,27.9,28.1,11111222
BHP,ioos:station:wmo:42383:2,2020-10-01T01:45:00Z,27.3704,-89.9241,27.9,28.1,11111222
BHP,ioos:station:wmo:42383:2,2020-10-01T02:05:00Z,27.3704,-89.9241,27.9,28.1,11111222
BHP,ioos:station:wmo:42383:2,2020-10-01T02:25:00Z,27.3704,-89.9241,27.9,27.8,11111222
BHP,ioos:station:wmo:42383:2,2020-10-01T02:45:00Z,27.3704,-89.9241,27.9,27.7,11111222
BHP,ioos:station:wmo:42383:2,2020-10-01T03:05:00Z,27.3704,-89.9241,27.9,27.7,11111222
BHP,ioos:station:wmo:42383:2,2020-10-01T03:25:00Z,27.3704,-89.9241,27.9,28.1,11111222
BHP,ioos:station:wmo:42383:2,2020-10-01T03:45:00Z,27.3704,-89.9241,27.9,27.8,11111222
BHP,ioos:station:wmo:42383:2,2020-10-01T04:05:00Z,27.3704,-89.9241,27.9,27.7,11111222
BHP,ioos:station:wmo:42383:2,2020-10-01T04:25:00Z,27.3704,-89.9241,27.9,27.7,11111222
BHP,ioos:station:wmo:42383:2,2020-10-01T04:45:00Z,27.3704,-89.9241,27.9,27.8,11111222
BHP,ioos:station:wmo:42383:2,2020-10-01T05:05:00Z,27.3704,-89.9241,27.9,27.9,11111222
BHP,ioos:station:wmo:42383:2,2020-10-01T05:25:00Z,27.3704,-89.9241,27.9,27.7,11111222
BHP,ioos:station:wmo:42383:2,2020-10-01T05:45:00Z,27.3704,-89.9241,27.9,27.8,11111222
BHP,ioos:station:wmo:42383:2,2020-10-01T06:05:00Z,27.3704,-89.9241,27.9,27.7,11111222
BHP,ioos:station:wmo:42383:2,2020-10-01T06:25:00Z,27.3704,-89.9241,27.9,27.8,11111222
BHP,ioos:station:wmo:42383:2,2020-10-01T06:45:00Z,27.3704,-89.9241,27.9,28.0,11111222
BHP,ioos:station:wmo:42383:2,2020-10-01T07:05:00Z,27.3704,-89.9241,27.9,27.9,11111222
BHP,ioos:station:wmo:42383:2,2020-10-01T07:25:00Z,27.3704,-89.9241,27.9,27.5,11111222
BHP,ioos:station:wmo:42383:2,2020-10-01T07:45:00Z,27.3704,-89.9241,27.9,28.0,11111222
BHP,ioos:station:wmo:42383:2,2020-10-01T08:05:00Z,27.3704,-89.9241,27.9,27.7,11111222
BHP,ioos:station:wmo:42383:2,2020-10-01T08:25:00Z,27.3704,-89.9241,27.9,27.8,11111222
BHP,ioos:station:wmo:42383:2,2020-10-01T08:45:00Z,27.3704,-89.9241,27.9,27.6,11111222
BHP,ioos:station:wmo:42383:2,2020-10-01T09:05:00Z,27.3704,-89.9241,27.9,27.7,11111222
BHP,ioos:station:wmo:42383:2,2020-10-01T09:25:00Z,27.3704,-89.9241,27.9,27.6,11111222
BHP,ioos:station:wmo:42383:2,2020-10-01T09:45:00Z,27.3704,-89.9241,27.9,27.7,11111222
BHP,ioos:station:wmo:42383:2,2020-10-01T10:05:00Z,27.3704,-89.9241,27.9,27.8,11111222
BHP,ioos:station:wmo:42383:2,2020-10-01T10:25:00Z,27.3704,-89.9241,27.9,27.9,11111222
BHP,ioos:station:wmo:42383:2,2020-10-01T10:45:00Z,27.3704,-89.9241,27.9,27.7,11111222
BHP,ioos:station:wmo:42383:2,2020-10-01T11:05:00Z,27.3704,-89.9241,27.9,27.5,11111222
BHP,ioos:station:wmo:42383:2,2020-10-01T11:25:00Z,27.3704,-89.9241,27.9,27.7,11111222
BHP,ioos:station:wmo:42383:2,2020-10-01T11:45:00Z,27.3704,-89.9241,27.9,27.8,11111222
BHP,ioos:station:wmo:42383:2,2020-10-01T12:05:00Z,27.3704,-89.9241,27.9,27.9,11111222
BHP,ioos:station:wmo:42383:2,2020-10-01T12:25:00Z,27.3704,-89.9241,27.9,28.0,11111222
BHP,ioos:station:wmo:42383:2,2020-10-01T12:45:00Z,27.3704,-89.9241,27.9,27.9,11111222
BHP,ioos:station:wmo:42383:2,2020-10-01T13:05:00Z,27.3704,-89.9241,27.9,27.8,11111222
BHP,ioos:station:wmo:42383:2,2020-10-01T13:25:00Z,27.3704,-89.9241,27.9,27.8,11111222
BHP,ioos:station:wmo:42383:2,2020-10-01T13:45:00Z,27.3704,-89.9241,27.9,27.8,11111222
BHP,ioos:station:wmo:42383:2,2020-10-01T14:05:00Z,27.3704,-89.9241,27.9,28.1,11111222
BHP,ioos:station:wmo:42383:2,2020-10-01T14:25:00Z,27.3704,-89.9241,27.9,27.8,11111222
BHP,ioos:station:wmo:42383:2,2020-10-01T14:45:00Z,27.3704,-89.9241,27.9,27.9,11111222
BHP,ioos:station:wmo:42383:2,2020-10-01T15:05:00Z,27.3704,-89.9241,27.9,27.6,11111222
BHP,ioos:station:wmo:42383:2,2020-10-01T15:25:00Z,27.3704,-89.9241,27.9,27.9,11111222
BHP,ioos:station:wmo:42383:2,2020-10-01T15:45:00Z,27.3704,-89.9241,27.9,28.2,11111222
BHP,ioos:station:wmo:42383:2,2020-10-01T16:05:00Z,27.3704,-89.9241,27.9,27.9,11111222
BHP,ioos:station:wmo:42383:2,2020-10-01T16:25:00Z,27.3704,-89.9241,27.9,27.7,11111222
BHP,ioos:station:wmo:42383:2,2020-10-01T16:45:00Z,27.3704,-89.9241,27.9,28.0,11111222
BHP,ioos:station:wmo:42383:2,2020-10-01T17:05:00Z,27.3704,-89.9241,27.9,28.0,11111222
BHP,ioos:station:wmo:42383:2,2020-10-01T17:25:00Z,27.3704,-89.9241,27.9,28.0,11111222
BHP,ioos:station:wmo:42383:2,2020-10-01T17:45:00Z,27.3704,-89.9241,27.9,27.7,11111222
BHP,ioos:station:wmo:42383:2,2020-10-01T18:05:00Z,27.3704,-89.9241,27.9,28.1,11111222
BHP,ioos:station:wmo:42383:2,2020-10-01T18:25:00Z,27.3704,-89.9241,27.9,28.2,11111222
BHP,ioos:station:wmo:42383:2,2020-10-01T18:45:00Z,27.3704,-89.9241,27.9,28.0,11111222
BHP,ioos:station:wmo:42383:2,2020-10-01T19:05:00Z,27.3704,-89.9241,27.9,28.3,11111222
BHP,ioos:station:wmo:42383:2,2020-10-01T19:25:00Z,27.3704,-89.9241,27.9,28.0,11111222
BHP,ioos:station:wmo:42383:2,2020-10-01T19:45:00Z,27.3704,-89.9241,27.9,27.9,11111222
BHP,ioos:station:wmo:42383:2,2020-10-01T20:05:00Z,27.3704,-89.9241,27.9,27.8,11111222
BHP,ioos:station:wmo:42383:2,2020-10-01T20:25:00Z,27.3704,-89.9241,27.9,27.9,11111222
BHP,ioos:station:wmo:42383:2,2020-10-01T20:45:00Z,27.3704,-89.9241,27.9,28.2,11111222
BHP,ioos:station:wmo:42383:2,2020-10-01T21:05:00Z,27.3704,-89.9241,27.9,28.2,11111222
BHP,ioos:station:wmo:42383:2,2020-10-01T21:25:00Z,27.3704,-89.9241,27.9,28.0,11111222
BHP,ioos:station:wmo:42383:2,2020-10-01T21:45:00Z,27.3704,-89.9241,27.9,28.0,11111222
BHP,ioos:station:wmo:42383:2,2020-10-01T22:05:00Z,27.3704,-89.9241,27.9,27.9,11111222
BHP,ioos:station:wmo:42383:2,2020-10-01T22:25:00Z,27.3704,-89.9241,27.9,28.2,11111222
BHP,ioos:station:wmo:42383:2,2020-10-01T22:45:00Z,27.3704,-89.9241,27.9,28.1,11111222
BHP,ioos:station:wmo:42383:2,2020-10-01T23:05:00Z,27.3704,-89.9241,27.9,28.2,11111222
BHP,ioos:station:wmo:42383:2,2020-10-01T23:25:00Z,27.3704,-89.9241,27.9,28.1,11111222
BHP,ioos:station:wmo:42383:2,2020-10-01T23:45:00Z,27.3704,-89.9241,27.9,28.1,11111222
BHP,ioos:station:wmo:42383:2,2020-10-02T00:05:00Z,27.3704,-89.9241,27.9,28.2,11111222
BHP,ioos:station:wmo:42383:2,2020-10-02T00:25:00Z,27.3704,-89.9241,27.9,27.9,11111222
BHP,ioos:station:wmo:42383:2,2020-10-02T00:45:00Z,27.3704,-89.9241,27.9,27.9,11111222
BHP,ioos:station:wmo:42383:2,2020-10-02T01:05:00Z,27.3704,-89.9241,27.9,28.0,11111222
BHP,ioos:station:wmo:42383:2,2020-10-02T01:25:00Z,27.3704,-89.9241,27.9,28.1,11111222
BHP,ioos:station:wmo:42383:2,2020-10-02T01:45:00Z,27.3704,-89.9241,27.9,28.0,11111222
BHP,ioos:station:wmo:42383:2,2020-10-02T02:05:00Z,27.3704,-89.9241,27.9,28.1,11111222
BHP,ioos:station:wmo:42383:2,2020-10-02T02:25:00Z,27.3704,-89.9241,27.9,27.6,11111222
BHP,ioos:station:wmo:42383:2,2020-10-02T02:45:00Z,27.3704,-89.9241,27.9,27.6,11111222
BHP,ioos:station:wmo:42383:2,2020-10-02T03:05:00Z,27.3704,-89.9241,27.9,28.0,11111222
BHP,ioos:station:wmo:42383:2,2020-10-02T03:25:00Z,27.3704,-89.9241,27.9,27.8,11111222
BHP,ioos:station:wmo:42383:2,2020-10-02T03:45:00Z,27.3704,-89.9241,27.9,28.1,11111222
BHP,ioos:station:wmo:42383:2,2020-10-02T04:05:00Z,27.3704,-89.9241,27.9,27.6,11111222
BHP,ioos:station:wmo:42383:2,2020-10-02T04:25:00Z,27.3704,-89.9241,27.9,27.6,11111222
BHP,ioos:station:wmo:42383:2,2020-10-02T04:45:00Z,27.3704,-89.9241,27.9,27.7,11111222
BHP,ioos:station:wmo:42383:2,2020-10-02T05:05:00Z,27.3704,-89.9241,27.9,28.0,11111222
BHP,ioos:station:wmo:42383:2,2020-10-02T05:25:00Z,27.3704,-89.9241,27.9,27.6,11111222
BHP,ioos:station:wmo:42383:2,2020-10-02T05:45:00Z,27.3704,-89.9241,27.9,27.7,11111222
BHP,ioos:station:wmo:42383:2,2020-10-02T06:05:00Z,27.3704,-89.9241,27.9,27.6,11111222
BHP,ioos:station:wmo:42383:2,2020-10-02T06:25:00Z,27.3704,-89.9241,27.9,28.0,11111222
BHP,ioos:station:wmo:42383:2,2020-10-02T06:45:00Z,27.3704,-89.9241,27.9,27.5,11111222
BHP,ioos:station:wmo:42383:2,2020-10-02T07:05:00Z,27.3704,-89.9241,27.9,27.9,11111222
BHP,ioos:station:wmo:42383:2,2020-10-02T07:25:00Z,27.3704,-89.9241,27.9,27.9,11111222
BHP,ioos:station:wmo:42383:2,2020-10-02T07:45:00Z,27.3704,-89.9241,27.9,27.5,11111222
BHP,ioos:station:wmo:42383:2,2020-10-02T08:05:00Z,27.3704,-89.9241,27.9,27.7,11111222
BHP,ioos:station:wmo:42383:2,2020-10-02T08:25:00Z,27.3704,-89.9241,27.9,27.4,11111222
BHP,ioos:station:wmo:42383:2,2020-10-02T08:45:00Z,27.3704,-89.9241,27.9,27.5,11111222
BHP,ioos:station:wmo:42383:2,2020-10-02T09:05:00Z,27.3704,-89.9241,27.9,27.8,11111222
BHP,ioos:station:wmo:42383:2,2020-10-02T09:25:00Z,27.3704,-89.9241,27.9,27.4,11111222
BHP,ioos:station:wmo:42383:2,2020-10-02T09:45:00Z,27.3704,-89.9241,27.9,27.8,11111222
BHP,ioos:station:wmo:42383:2,2020-10-02T10:05:00Z,27.3704,-89.9241,27.9,27.3,11111222
BHP,ioos:station:wmo:42383:2,2020-10-02T10:25:00Z,27.3704,-89.9241,27.9,27.5,11111222
BHP,ioos:station:wmo:42383:2,2020-10-02T10:45:00Z,27.3704,-89.9241,27.9,27.3,11111222
BHP,ioos:station:wmo:42383:2,2020-10-02T11:05:00Z,27.3704,-89.9241,27.9,27.5,11111222
BHP,ioos:station:wmo:42383:2,2020-10-02T11:25:00Z,27.3704,-89.9241,27.9,27.4,11111222
BHP,ioos:station:wmo:42383:2,2020-10-02T11:45:00Z,27.3704,-89.9241,27.9,27.3,11111222
BHP,ioos:station:wmo:42383:2,2020-10-02T12:05:00Z,27.3704,-89.9241,27.9,27.6,11111222
BHP,ioos:station:wmo:42383:2,2020-10-02T12:25:00Z,27.3704,-89.9241,27.9,27.6,11111222
BHP,ioos:station:wmo:42383:2,2020-10-02T12:45:00Z,27.3704,-89.9241,27.9,27.2,11111222
BHP,ioos:station:wmo:42383:2,2020-10-02T13:05:00Z,27.3704,-89.9241,27.9,27.5,11111222
BHP,ioos:station:wmo:42383:2,2020-10-02T13:25:00Z,27.3704,-89.9241,27.9,27.0,11111222
BHP,ioos:station:wmo:42383:2,2020-10-02T13:45:00Z,27.3704,-89.9241,27.9,27.2,11111222
BHP,ioos:station:wmo:42383:2,2020-10-02T14:05:00Z,27.3704,-89.9241,27.9,27.5,11111222
BHP,ioos:station:wmo:42383:2,2020-10-02T14:25:00Z,27.3704,-89.9241,27.9,27.4,11111222
BHP,ioos:station:wmo:42383:2,2020-10-02T14:45:00Z,27.3704,-89.9241,27.9,27.2,11111222
BHP,ioos:station:wmo:42383:2,2020-10-02T15:05:00Z,27.3704,-89.9241,27.9,27.0,11111222
BHP,ioos:station:wmo:42383:2,2020-10-02T15:25:00Z,27.3704,-89.9241,27.9,27.2,11111222
BHP,ioos:station:wmo:42383:2,2020-10-02T15:45:00Z,27.3704,-89.9241,27.9,27.4,11111222
BHP,ioos:station:wmo:42383:2,2020-10-02T16:05:00Z,27.3704,-89.9241,27.9,27.0,11111222
BHP,ioos:station:wmo:42383:2,2020-10-02T16:25:00Z,27.3704,-89.9241,27.9,27.1,11111222
BHP,ioos:station:wmo:42383:2,2020-10-02T16:45:00Z,27.3704,-89.9241,27.9,27.2,11111222
BHP,ioos:station:wmo:42383:2,2020-10-02T17:05:00Z,27.3704,-89.9241,27.9,27.0,11111222
BHP,ioos:station:wmo:42383:2,2020-10-02T17:25:00Z,27.3704,-89.9241,27.9,27.2,11111222
BHP,ioos:station:wmo:42383:2,2020-10-02T17:45:00Z,27.3704,-89.9241,27.9,27.0,11111222
BHP,ioos:station:wmo:42383:2,2020-10-02T18:05:00Z,27.3704,-89.9241,27.9,27.4,11111222
BHP,ioos:station:wmo:42383:2,2020-10-02T18:25:00Z,27.3704,-89.9241,27.9,26.9,11111222
BHP,ioos:station:wmo:42383:2,2020-10-02T18:45:00Z,27.3704,-89.9241,27.9,27.0,11111222
BHP,ioos:station:wmo:42383:2,2020-10-02T19:05:00Z,27.3704,-89.9241,27.9,27.3,11111222
BHP,ioos:station:wmo:42383:2,2020-10-02T19:25:00Z,27.3704,-89.9241,27.9,27.2,11111222
BHP,ioos:station:wmo:42383:2,2020-10-02T19:45:00Z,27.3704,-89.9241,27.9,27.0,11111222
BHP,ioos:station:wmo:42383:2,2020-10-02T20:05:00Z,27.3704,-89.9241,27.9,27.4,11111222
BHP,ioos:station:wmo:42383:2,2020-10-02T20:25:00Z,27.3704,-89.9241,27.9,26.9,11111222
BHP,ioos:station:wmo:42383:2,2020-10-02T20:45:00Z,27.3704,-89.9241,27.9,27.3,11111222
BHP,ioos:station:wmo:42383:2,2020-10-02T21:05:00Z,27.3704,-89.9241,27.9,27.0,11111222
BHP,ioos:station:wmo:42383:2,2020-10-02T21:25:00Z,27.3704,-89.9241,27.9,27.2,11111222
BHP,ioos:station:wmo:42383:2,2020-10-02T21:45:00Z,27.3704,-89.9241,27.9,27.0,11111222
BHP,ioos:station:wmo:42383:2,2020-10-02T22:05:00Z,27.3704,-89.9241,27.9,27.3,11111222
BHP,ioos:station:wmo:42383:2,2020-10-02T22:25:00Z,27.3704,-89.9241,27.9,26.8,11111222
BHP,ioos:station:wmo:42383:2,2020-10-02T22:45:00Z,27.3704,-89.9241,27.9,26.7,11111222
BHP,ioos:station:wmo:42383:2,2020-10-02T23:05:00Z,27.3704,-89.9241,27.9,26.8,11111222
BHP,ioos:station:wmo:42383:2,2020-10-02T23:25:00Z,27.3704,-89.9241,27.9,27.1,11111222
BHP,ioos:station:wmo:42383:2,2020-10-02T23:45:00Z,27.3704,-89.9241,27.9,27.2,11111222
BHP,ioos:station:wmo:42383:2,2020-10-03T00:05:00Z,27.3704,-89.9241,27.9,26.9,11111222
BHP,ioos:station:wmo:42383:2,2020-10-03T00:25:00Z,27.3704,-89.9241,27.9,26.9,11111222
BHP,ioos:station:wmo:42383:2,2020-10-03T00:45:00Z,27.3704,-89.9241,27.9,27.0,11111222
BHP,ioos:station:wmo:42383:2,2020-10-03T01:05:00Z,27.3704,-89.9241,27.9,27.2,11111222
BHP,ioos:station:wmo:42383:2,2020-10-03T01:25:00Z,27.3704,-89.9241,27.9,27.2,11111222
BHP,ioos:station:wmo:42383:2,2020-10-03T01:45:00Z,27.3704,-89.9241,27.9,26.9,11111222
BHP,ioos:station:wmo:42383:2,2020-10-03T02:05:00Z,27.3704,-89.9241,27.9,27.2,11111222
BHP,ioos:station:wmo:42383:2,2020-10-03T02:25:00Z,27.3704,-89.9241,27.9,27.2,11111222
BHP,ioos:station:wmo:42383:2,2020-10-03T02:45:00Z,27.3704,-89.9241,27.9,26.9,11111222
BHP,ioos:station:wmo:42383:2,2020-10-03T03:05:00Z,27.3704,-89.9241,27.9,27.2,11111222
BHP,ioos:station:wmo:42383:2,2020-10-03T03:25:00Z,27.3704,-89.9241,27.9,27.3,11111222
BHP,ioos:station:wmo:42383:2,2020-10-03T03:45:00Z,27.3704,-89.9241,27.9,27.2,11111222
BHP,ioos:station:wmo:42383:2,2020-10-03T04:05:00Z,27.3704,-89.9241,27.9,26.8,11111222
BHP,ioos:station:wmo:42383:2,2020-10-03T04:25:00Z,27.3704,-89.9241,27.9,27.2,11111222
BHP,ioos:station:wmo:42383:2,2020-10-03T04:45:00Z,27.3704,-89.9241,27.9,26.8,11111222
BHP,ioos:station:wmo:42383:2,2020-10-03T05:05:00Z,27.3704,-89.9241,27.9,26.9,11111222
BHP,ioos:station:wmo:42383:2,2020-10-03T05:25:00Z,27.3704,-89.9241,27.9,26.8,11111222
BHP,ioos:station:wmo:42383:2,2020-10-03T05:45:00Z,27.3704,-89.9241,27.9,26.9,11111222
BHP,ioos:station:wmo:42383:2,2020-10-03T06:05:00Z,27.3704,-89.9241,27.9,27.2,11111222
BHP,ioos:station:wmo:42383:2,2020-10-03T06:25:00Z,27.3704,-89.9241,27.9,27.0,11111222
BHP,ioos:station:wmo:42383:2,2020-10-03T06:45:00Z,27.3704,-89.9241,27.9,26.9,11111222
BHP,ioos:station:wmo:42383:2,2020-10-03T07:05:00Z,27.3704,-89.9241,27.9,27.1,11111222
BHP,ioos:station:wmo:42383:2,2020-10-03T07:25:00Z,27.3704,-89.9241,27.9,27.1,11111222
BHP,ioos:station:wmo:42383:2,2020-10-03T07:45:00Z,27.3704,-89.9241,27.9,27.2,11111222
BHP,ioos:station:wmo:42383:2,2020-10-03T08:05:00Z,27.3704,-89.9241,27.9,26.8,11111222
BHP,ioos:station:wmo:42383:2,2020-10-03T08:25:00Z,27.3704,-89.9241,27.9,27.0,11111222
BHP,ioos:station:wmo:42383:2,2020-10-03T08:45:00Z,27.3704,-89.9241,27.9,26.9,11111222
BHP,ioos:station:wmo:42383:2,2020-10-03T09:05:00Z,27.3704,-89.9241,27.9,26.9,11111222
BHP,ioos:station:wmo:42383:2,2020-10-03T09:25:00Z,27.3704,-89.9241,27.9,27.2,11111222
BHP,ioos:station:wmo:42383:2,2020-10-03T09:45:00Z,27.3704,-89.9241,27.9,27.0,11111222
BHP,ioos:station:wmo:42383:2,2020-10-03T10:05:00Z,27.3704,-89.9241,27.9,27.2,11111222
BHP,ioos:station:wmo:42383:2,2020-10-03T10:25:00Z,27.3704,-89.9241,27.9,26.9,11111222
BHP,ioos:station:wmo:42383:2,2020-10-03T10:45:00Z,27.3704,-89.9241,27.9,27.4,11111222
BHP,ioos:station:wmo:42383:2,2020-10-03T11:05:00Z,27.3704,-89.9241,27.9,27.1,11111222
BHP,ioos:station:wmo:42383:2,2020-10-03T11:25:00Z,27.3704,-89.9241,27.9,26.9,11111222
BHP,ioos:station:wmo:42383:2,2020-10-03T11:45:00Z,27.3704,-89.9241,27.9,27.3,11111222
BHP,ioos:station:wmo:42383:2,2020-10-03T12:05:00Z,27.3704,-89.9241,27.9,26.9,11111222
BHP,ioos:station:wmo:42383:2,2020-10-03T12:25:00Z,27.3704,-89.9241,27.9,27.3,11111222
BHP,ioos:station:wmo:42383:2,2020-10-03T12:45:00Z,27.3704,-89.9241,27.9,27.2,11111222
BHP,ioos:station:wmo:42383:2,2020-10-03T13:05:00Z,27.3704,-89.9241,27.9,26.9,11111222
BHP,ioos:station:wmo:42383:2,2020-10-03T13:25:00Z,27.3704,-89.9241,27.9,26.9,11111222
BHP,ioos:station:wmo:42383:2,2020-10-03T13:45:00Z,27.3704,-89.9241,27.9,26.9,11111222
BHP,ioos:station:wmo:42383:2,2020-10-03T14:05:00Z,27.3704,-89.9241,27.9,26.8,11111222
BHP,ioos:station:wmo:42383:2,2020-10-03T14:25:00Z,27.3704,-89.9241,27.9,26.8,11111222
BHP,ioos:station:wmo:42383:2,2020-10-03T14:45:00Z,27.3704,-89.9241,27.9,27.0,11111222
BHP,ioos:station:wmo:42383:2,2020-10-03T15:05:00Z,27.3704,-89.9241,27.9,27.0,11111222
BHP,ioos:station:wmo:42383:2,2020-10-03T15:25:00Z,27.3704,-89.9241,27.9,27.0,11111222
BHP,ioos:station:wmo:42383:2,2020-10-03T15:45:00Z,27.3704,-89.9241,27.9,26.9,11111222
BHP,ioos:station:wmo:42383:2,2020-10-03T16:05:00Z,27.3704,-89.9241,27.9,26.8,11111222
BHP,ioos:station:wmo:42383:2,2020-10-03T16:25:00Z,27.3704,-89.9241,27.9,27.1,11111222
BHP,ioos:station:wmo:42383:2,2020-10-03T16:45:00Z,27.3704,-89.9241,27.9,27.0,11111222
BHP,ioos:station:wmo:42383:2,2020-10-03T17:05:00Z,27.3704,-89.9241,27.9,26.8,11111222
BHP,ioos:station:wmo:42383:2,2020-10-03T17:25:00Z,27.3704,-89.9241,27.9,27.2,11111222
BHP,ioos:station:wmo:42383:2,2020-10-03T17:45:00Z,27.3704,-89.9241,27.9,26.7,11111222
BHP,ioos:station:wmo:42383:2,2020-10-03T18:05:00Z,27.3704,-89.9241,27.9,26.9,11111222
BHP,ioos:station:wmo:42383:2,2020-10-03T18:25:00Z,27.3704,-89.9241,27.9,27.0,11111222
BHP,ioos:station:wmo:42383:2,2020-10-03T18:45:00Z,27.3704,-89.9241,27.9,26.9,11111222
BHP,ioos:station:wmo:42383:2,2020-10-03T19:05:00Z,27.3704,-89.9241,27.9,27.0,11111222
BHP,ioos:station:wmo:42383:2,2020-10-03T19:25:00Z,27.3704,-89.9241,27.9,26.7,11111222
BHP,ioos:station:wmo:42383:2,2020-10-03T19:45:00Z,27.3704,-89.9241,27.9,26.8,11111222
BHP,ioos:station:wmo:42383:2,2020-10-03T20:05:00Z,27.3704,-89.9241,27.9,27.2,11111222
BHP,ioos:station:wmo:42383:2,2020-10-03T20:25:00Z,27.3704,-89.9241,27.9,26.8,11111222
BHP,ioos:station:wmo:42383:2,2020-10-03T20:45:00Z,27.3704,-89.9241,27.9,26.9,11111222
BHP,ioos:station:wmo:42383:2,2020-10-03T21:05:00Z,27.3704,-89.9241,27.9,26.9,11111222
BHP,ioos:station:wmo:42383:2,2020-10-03T21:25:00Z,27.3704,-89.9241,27.9,26.8,11111222
BHP,ioos:station:wmo:42383:2,2020-10-03T21:45:00Z,27.3704,-89.9241,27.9,26.8,11111222
BHP,ioos:station:wmo:42383:2,2020-10-03T22:05:00Z,27.3704,-89.9241,27.9,27.2,11111222
BHP,ioos:station:wmo:42383:2,2020-10-03T22:25:00Z,27.3704,-89.9241,27.9,26.9,11111222
BHP,ioos:station:wmo:42383:2,2020-10-03T22:45:00Z,27.3704,-89.9241,27.9,27.0,11111222
BHP,ioos:station:wmo:42383:2,2020-10-03T23:05:00Z,27.3704,-89.9241,27.9,27.0,11111222
BHP,ioos:station:wmo:42383:2,2020-10-03T23:25:00Z,27.3704,-89.9241,27.9,26.6,11111222
BHP,ioos:station:wmo:42383:2,2020-10-03T23:45:00Z,27.3704,-89.9241,27.9,26.9,11111222
BHP,ioos:station:wmo:42383:2,2020-10-04T00:05:00Z,27.3704,-89.9241,27.9,26.8,11111222
BHP,ioos:station:wmo:42383:2,2020-10-04T00:25:00Z,27.3704,-89.9241,27.9,27.1,11111222
BHP,ioos:station:wmo:42383:2,2020-10-04T00:45:00Z,27.3704,-89.9241,27.9,27.1,11111222
BHP,ioos:station:wmo:42383:2,2020-10-04T01:05:00Z,27.3704,-89.9241,27.9,26.8,11111222
BHP,ioos:station:wmo:42383:2,2020-10-04T01:25:00Z,27.3704,-89.9241,27.9,27.1,11111222
BHP,ioos:station:wmo:42383:2,2020-10-04T01:45:00Z,27.3704,-89.9241,27.9,27.0,11111222
BHP,ioos:station:wmo:42383:2,2020-10-04T02:05:00Z,27.3704,-89.9241,27.9,26.7,11111222
BHP,ioos:station:wmo:42383:2,2020-10-04T02:25:00Z,27.3704,-89.9241,27.9,26.7,11111222
BHP,ioos:station:wmo:42383:2,2020-10-04T02:45:00Z,27.3704,-89.9241,27.9,27.0,11111222
BHP,ioos:station:wmo:42383:2,2020-10-04T03:05:00Z,27.3704,-89.9241,27.9,26.7,11111222
BHP,ioos:station:wmo:42383:2,2020-10-04T03:25:00Z,27.3704,-89.9241,27.9,26.5,11111222
BHP,ioos:station:wmo:42383:2,2020-10-04T03:45:00Z,27.3704,-89.9241,27.9,26.9,11111222
BHP,ioos:station:wmo:42383:2,2020-10-04T04:05:00Z,27.3704,-89.9241,27.9,26.8,11111222
BHP,ioos:station:wmo:42383:2,2020-10-04T04:25:00Z,27.3704,-89.9241,27.9,26.8,11111222
BHP,ioos:station:wmo:42383:2,2020-10-04T04:45:00Z,27.3704,-89.9241,27.9,26.5,11111222
BHP,ioos:station:wmo:42383:2,2020-10-04T05:05:00Z,27.3704,-89.9241,27.9,26.7,11111222
BHP,ioos:station:wmo:42383:2,2020-10-04T05:25:00Z,27.3704,-89.9241,27.9,26.5,11111222
BHP,ioos:station:wmo:42383:2,2020-10-04T05:45:00Z,27.3704,-89.9241,27.9,26.4,11111222
BHP,ioos:station:wmo:42383:2,2020-10-04T06:05:00Z,27.3704,-89.9241,27.9,26.6,11111222
BHP,ioos:station:wmo:42383:2,2020-10-04T06:25:00Z,27.3704,-89.9241,27.9,26.6,11111222
BHP,ioos:station:wmo:42383:2,2020-10-04T06:45:00Z,27.3704,-89.9241,27.9,26.2,11111222
BHP,ioos:station:wmo:42383:2,2020-10-04T07:05:00Z,27.3704,-89.9241,27.9,26.5,11111222
BHP,ioos:station:wmo:42383:2,2020-10-04T07:25:00Z,27.3704,-89.9241,27.9,26.4,11111222
BHP,ioos:station:wmo:42383:2,2020-10-04T07:45:00Z,27.3704,-89.9241,27.9,26.2,11111222
BHP,ioos:station:wmo:42383:2,2020-10-04T08:05:00Z,27.3704,-89.9241,27.9,26.3,11111222
BHP,ioos:station:wmo:42383:2,2020-10-04T08:25:00Z,27.3704,-89.9241,27.9,26.4,11111222
BHP,ioos:station:wmo:42383:2,2020-10-04T08:44:00Z,27.3704,-89.9241,27.9,26.3,11111222
BHP,ioos:station:wmo:42383:2,2020-10-04T09:04:00Z,27.3704,-89.9241,27.9,26.0,11111222
BHP,ioos:station:wmo:42383:2,2020-10-04T09:24:00Z,27.3704,-89.9241,27.9,26.4,11111222
BHP,ioos:station:wmo:42383:2,2020-10-04T09:44:00Z,27.3704,-89.9241,27.9,26.1,11111222
BHP,ioos:station:wmo:42383:2,2020-10-04T10:04:00Z,27.3704,-89.9241,27.9,26.1,11111222
BHP,ioos:station:wmo:42383:2,2020-10-04T10:24:00Z,27.3704,-89.9241,27.9,26.4,11111222
BHP,ioos:station:wmo:42383:2,2020-10-04T10:44:00Z,27.3704,-89.9241,27.9,26.8,11111222
BHP,ioos:station:wmo:42383:2,2020-10-04T11:04:00Z,27.3704,-89.9241,27.9,26.6,11111222
BHP,ioos:station:wmo:42383:2,2020-10-04T11:25:00Z,27.3704,-89.9241,27.9,26.7,11111222
BHP,ioos:station:wmo:42383:2,2020-10-04T11:45:00Z,27.3704,-89.9241,27.9,26.8,11111222
BHP,ioos:station:wmo:42383:2,2020-10-04T12:05:00Z,27.3704,-89.9241,27.9,26.6,11111222
BHP,ioos:station:wmo:42383:2,2020-10-04T12:25:00Z,27.3704,-89.9241,27.9,26.8,11111222
BHP,ioos:station:wmo:42383:2,2020-10-04T12:45:00Z,27.3704,-89.9241,27.9,26.9,11111222
BHP,ioos:station:wmo:42383:2,2020-10-04T13:04:00Z,27.3704,-89.9241,27.9,26.9,11111222
BHP,ioos:station:wmo:42383:2,2020-10-04T13:24:00Z,27.3704,-89.9241,27.9,26.6,11111222
BHP,ioos:station:wmo:42383:2,2020-10-04T13:44:00Z,27.3704,-89.9241,27.9,26.4,11111222
BHP,ioos:station:wmo:42383:2,2020-10-04T14:04:00Z,27.3704,-89.9241,27.9,26.4,11111222
BHP,ioos:station:wmo:42383:2,2020-10-04T14:24:00Z,27.3704,-89.9241,27.9,26.3,11111222
BHP,ioos:station:wmo:42383:2,2020-10-04T14:44:00Z,27.3704,-89.9241,27.9,26.4,11111222
BHP,ioos:station:wmo:42383:2,2020-10-04T15:04:00Z,27.3704,-89.9241,27.9,26.3,11111222
BHP,ioos:station:wmo:42383:2,2020-10-04T15:24:00Z,27.3704,-89.9241,27.9,26.6,11111222
BHP,ioos:station:wmo:42383:2,2020-10-04T15:44:00Z,27.3704,-89.9241,27.9,26.5,11111222
BHP,ioos:station:wmo:42383:2,2020-10-04T16:04:00Z,27.3704,-89.9241,27.9,26.6,11111222
BHP,ioos:station:wmo:42383:2,2020-10-04T16:24:00Z,27.3704,-89.9241,27.9,26.7,11111222
BHP,ioos:station:wmo:42383:2,2020-10-04T16:44:00Z,27.3704,-89.9241,27.9,26.4,11111222
BHP,ioos:station:wmo:42383:2,2020-10-04T17:04:00Z,27.3704,-89.9241,27.9,26.8,11111222
BHP,ioos:station:wmo:42383:2,2020-10-04T17:24:00Z,27.3704,-89.9241,27.9,26.4,11111222
BHP,ioos:station:wmo:42383:2,2020-10-04T17:44:00Z,27.3704,-89.9241,27.9,26.5,11111222
BHP,ioos:station:wmo:42383:2,2020-10-04T18:04:00Z,27.3704,-89.9241,27.9,26.8,11111222
BHP,ioos:station:wmo:42383:2,2020-10-04T18:24:00Z,27.3704,-89.9241,27.9,26.8,11111222
BHP,ioos:station:wmo:42383:2,2020-10-04T18:44:00Z,27.3704,-89.9241,27.9,26.5,11111222
BHP,ioos:station:wmo:42383:2,2020-10-04T19:04:00Z,27.3704,-89.9241,27.9,26.6,11111222